Flag for U.S.A. Weather past 2 weeks in Kykotsmovi Village, Hopi, Arizona, U.S.A.

Now
95 °F

Partly sunny.


Feels Like: 91 °F
Forecast: 62 / 84 °F
Wind: 9 mph from North

Location: Winslow Municipal Airport

Current Time: Jul 3, 2015 at 5:11:28 PM

Latest Report: Jul 3, 2015 at 4:56 PM


Visibility: 10 mi

Pressure: 29.68 "Hg (24.51 "Hg at 1727m altitude)

Humidity: 19%

Dew point: 46 °F

Location of Kykotsmovi Village, HopiLocation

Historic Weather in Kykotsmovi Village, Hopi — Graph

°F

Kykotsmovi Village, Hopi temperature yesterday

Maximum temperature yesterday: 96 °F (at 3:56 PM)
Minimum temperature yesterday: 65 °F (at 2:56 AM)
Average temperature yesterday: 80 °F

Past Weeks' High & Low Weather Summary

 TemperatureHumidityPressure
High103 °F (Jun 26, 4:56 PM)87% (Jul 1, 10:03 PM)30.24 "Hg (Jul 1, 10:03 PM)
Low55 °F (Jun 20, 4:56 AM)6% (Jun 20, 11:56 AM)29.70 "Hg (Jul 3, 3:56 PM)
Average83 °F29%29.85 "Hg
* Reported Jun 18 3:56 PM — Jul 3 3:56 PM, Kykotsmovi Village, Hopi, Weather by CustomWeather, © 2015

Note: Actual official high and low records may vary slightly from our data, if they occured in-between our weather recording intervals... More about our weather records

Advertising

Kykotsmovi Village, Hopi weather history for previous 24 hours

 ConditionsComfort  
Time TempWeatherWind HumidityBarometerVisibility
3:56 PM
Fri, Jul 3
96 °FPartly sunny.5 mph19%29.70 "Hg10 mi
2:56 PM95 °FPassing clouds.7 mph22%29.73 "Hg10 mi
1:56 PM95 °FSunny.7 mph23%29.75 "Hg10 mi
12:56 PM92 °FSunny.6 mph25%29.80 "Hg10 mi
11:56 AM91 °FSunny.14 mph28%29.82 "Hg10 mi
10:56 AM90 °FSunny.18 mph29%29.84 "Hg10 mi
9:56 AM85 °FSunny.16 mph35%29.86 "Hg10 mi
8:56 AM81 °FSunny.15 mph39%29.87 "Hg10 mi
7:56 AM80 °FScattered clouds.18 mph41%29.86 "Hg10 mi
6:56 AM73 °FSunny.9 mph66%29.87 "Hg10 mi
5:56 AM69 °FSunny.No wind73%29.85 "Hg10 mi
4:56 AM70 °FPassing clouds.6 mph64%29.82 "Hg10 mi
3:56 AM70 °FClear.5 mph57%29.81 "Hg10 mi
2:56 AM69 °FClear.3 mph57%29.81 "Hg10 mi
1:56 AM75 °FClear.5 mph48%29.80 "Hg10 mi
12:56 AM74 °FClear.5 mph50%29.78 "Hg10 mi
11:56 PM
Thu, Jul 2
76 °FClear.6 mph48%29.80 "Hg10 mi
10:56 PM80 °FClear.No wind42%29.81 "Hg10 mi
9:56 PM79 °FPassing clouds.5 mph48%29.82 "Hg10 mi
8:56 PM82 °FClear.8 mph38%29.80 "Hg10 mi
7:56 PM86 °FClear.8 mph31%29.77 "Hg10 mi
6:56 PM87 °FSunny.9 mph32%29.78 "Hg10 mi
5:56 PM92 °FSunny.13 mph24%29.76 "Hg10 mi
Weather by CustomWeather, © 2015

See weather overviewHow to use our weather pages